Wind_Speed
10 9 7 6 5 4 4 4 4 3 3 6 8 8 10 10 11 11 13 13 13 13 14 14 14 13 13 12 10 9 9 8 7 6 5 6 5 5 4 4 3 2 2 2
12 10 9 8 7 6 5 6 4 4 6 8 8 8 9 10 11 11 11 12 13 13 12 13 14 13 12 12 10 9 9 7 6 6 5 5 5 4 3 3 3 3 2 2
11 10 9 9 8 7 6 6 6 7 8 9 8 8 9 10 10 11 11 12 13 11 11 12 12 13 12 11 11 9 8 7 6 5 5 5 4 4 3 3 3 3 3 3
12 11 9 9 9 8 7 8 9 9 9 9 9 9 9 10 10 10 10 11 11 11 11 11 11 12 11 11 10 9 8 6 5 5 5 5 5 4 3 3 2 3 3 3
11 10 9 8 7 7 8 10 11 11 10 10 10 10 8 9 10 10 10 10 10 10 11 11 11 12 12 12 10 9 8 6 6 5 5 6 5 4 4 3 3 3 3 3
12 11 10 9 8 6 8 10 11 11 11 10 10 11 10 8 9 10 9 9 10 10 12 12 12 12 12 12 11 10 7 6 6 6 6 5 5 5 4 4 4 4 4 4
13 11 10 10 9 8 9 10 11 11 11 11 10 11 9 7 7 7 8 8 9 11 12 13 13 13 13 13 11 10 8 6 6 6 6 6 6 5 4 4 4 4 5 5
13 12 11 11 10 9 10 11 12 13 12 11 11 11 9 7 7 8 8 9 10 11 12 13 14 14 14 12 11 10 9 7 7 6 6 6 6 6 5 5 4 5 5 6
15 13 13 12 11 12 11 11 12 14 14 14 14 12 9 9 7 8 9 10 11 12 12 13 13 14 13 13 12 11 10 8 7 7 6 6 6 6 6 6 6 6 7 7
15 15 14 13 14 14 13 13 13 14 15 15 14 13 10 10 10 9 10 11 12 12 12 13 14 14 13 13 12 12 11 10 8 8 8 8 7 8 8 8 8 8 9 9
17 17 16 16 16 15 15 15 15 16 15 15 15 14 13 13 12 12 11 12 13 14 13 14 15 15 14 14 13 14 12 10 9 9 9 9 9 9 10 10 10 10 10 11
19 19 18 18 17 18 18 17 16 17 17 17 16 16 15 15 15 14 14 14 14 14 15 16 16 16 15 15 14 14 14 13 12 11 11 12 11 12 12 12 13 13 13 13
20 21 20 19 19 19 18 17 17 18 19 19 18 18 15 15 15 16 16 16 16 16 17 18 18 18 17 17 16 16 16 16 15 14 14 14 14 14 14 15 15 15 15 15
20 21 22 20 19 19 19 18 18 19 20 20 20 19 18 16 17 18 18 18 18 18 18 19 20 19 19 19 18 18 18 17 16 16 15 16 16 16 16 17 16 16 16 17
22 23 22 22 21 21 21 19 18 18 19 20 20 19 18 18 20 20 20 19 19 19 20 20 21 21 20 20 20 20 18 18 18 17 17 17 17 18 18 18 17 17 17 18
23 24 23 23 23 24 23 21 20 20 21 22 21 20 20 20 21 21 21 22 22 20 21 21 21 21 21 20 21 21 20 20 20 19 19 20 20 19 19 19 18 19 19 20
22 23 24 23 24 24 24 23 23 23 23 23 22 21 22 22 22 23 24 24 23 23 23 22 21 21 22 22 21 21 22 22 21 20 20 21 21 20 20 20 20 20 21 22
23 23 24 24 24 25 25 25 26 25 24 24 24 24 23 23 23 24 24 25 26 25 24 23 22 21 21 22 22 22 23 23 23 23 22 22 22 22 21 21 21 22 23 22
24 23 24 24 25 25 24 24 26 26 26 25 26 26 25 25 25 25 25 25 25 25 24 23 23 23 23 23 23 23 24 25 25 24 24 23 22 22 22 22 23 23 23 23
24 24 25 25 26 25 23 23 25 26 27 26 27 28 27 26 26 25 25 26 25 25 24 24 24 24 24 24 24 24 25 25 25 25 25 24 24 24 24 25 25 25 25 24
25 24 24 24 24 24 23 23 24 25 25 25 26 27 27 27 26 26 25 25 26 26 25 25 25 25 25 24 24 24 25 25 26 26 25 25 25 25 25 25 25 25 25 25
24 23 24 24 24 23 22 23 24 25 24 24 24 25 25 26 27 28 27 27 26 25 24 24 25 26 26 25 25 25 25 25 26 26 26 27 26 26 26 25 26 26 26 26
24 24 24 25 25 24 23 23 24 25 24 23 23 23 24 25 26 26 26 26 26 26 25 26 26 26 27 27 26 26 26 26 26 26 27 28 26 26 27 27 27 26 26 26
24 23 24 25 24 24 23 24 24 25 24 24 23 23 23 24 25 26 26 25 26 26 26 27 27 27 26 27 27 27 26 26 26 26 27 26 26 26 27 27 25 24 24 24
24 25 25 25 24 23 22 23 23 24 24 24 24 23 24 25 25 25 25 25 26 27 27 27 27 27 27 27 27 27 27 27 27 27 27 27 27 26 26 26 25 24 23 23
24 24 25 24 23 22 21 21 22 23 23 23 24 24 25 25 25 25 26 26 27 27 27 28 27 27 27 27 28 28 28 28 28 27 27 27 27 27 25 25 25 24 24 25
Wind_Direction
195 193 182 181 191 204 227 240 254 284 307 307 313 326 335 340 347 353 358 6 12 17 19 19 19 20 19 19 21 21 21 23 29 35 46 49 49 53 57 61 75 76 56 42
201 196 196 201 213 222 236 241 260 290 291 288 298 311 326 329 334 339 349 359 5 8 13 16 16 16 16 15 15 15 16 18 21 24 36 42 42 43 41 43 43 41 35 14
201 199 206 208 219 225 229 249 267 281 279 279 289 307 314 315 319 332 343 348 354 2 6 12 11 12 12 13 13 12 12 12 16 18 17 22 24 23 21 23 23 18 17 7
201 205 213 217 227 231 237 250 261 264 263 270 278 294 305 313 313 328 338 346 353 356 2 4 7 8 8 6 7 4 360 358 356 358 1 360 0 1 359 359 357 350 354 1
208 214 225 234 239 242 254 258 260 263 262 261 259 271 295 308 315 324 331 336 343 348 352 356 359 2 2 2 0 359 353 345 339 338 348 351 342 337 334 331 330 325 331 340
214 217 227 238 241 248 265 268 264 261 261 257 259 267 278 295 308 319 324 329 339 340 347 351 353 353 356 356 353 352 345 337 330 332 333 332 332 326 318 317 313 310 311 317
211 214 224 234 239 242 261 270 266 267 264 263 270 282 289 299 303 314 319 324 332 334 338 343 344 344 344 345 344 345 341 332 327 328 328 322 316 314 316 310 306 305 306 305
214 214 224 230 244 254 262 269 278 279 279 271 275 286 289 295 300 302 308 316 321 324 327 328 334 335 336 338 337 335 333 327 320 320 318 317 315 307 299 302 301 300 302 302
220 222 227 237 245 250 258 267 278 282 282 284 279 278 271 289 296 292 294 305 310 314 321 321 327 330 330 334 332 327 325 320 314 312 310 308 309 307 298 294 292 291 294 302
225 228 226 232 233 240 253 260 271 277 284 281 277 274 279 289 286 285 288 297 304 306 312 318 320 323 321 326 326 324 316 314 310 303 301 302 302 300 296 293 291 289 289 294
230 233 228 230 233 238 248 254 262 268 274 279 277 278 285 286 287 289 293 298 300 297 299 309 315 315 314 314 316 318 311 306 304 297 296 297 296 292 292 293 291 287 287 287
233 236 234 233 238 240 247 256 258 263 271 274 276 280 286 285 282 286 289 293 293 292 293 300 306 306 306 305 306 309 306 302 303 296 297 295 292 291 292 294 292 290 287 285
236 240 240 238 238 241 247 252 258 262 268 271 275 280 280 284 283 282 282 286 286 287 291 296 300 302 302 301 300 301 301 299 297 298 298 296 293 292 289 291 290 289 289 287
240 242 242 243 243 248 250 251 256 261 265 269 272 275 277 277 279 281 281 284 285 285 288 290 294 296 298 298 297 298 298 297 294 294 296 295 291 288 287 289 288 285 285 286
237 239 242 244 246 250 254 254 255 257 261 267 271 274 276 275 277 280 281 284 284 284 284 285 290 295 296 296 294 294 292 293 292 292 293 291 288 287 287 287 285 283 283 284
241 241 243 245 247 250 252 252 256 257 257 263 268 271 272 275 276 277 277 279 281 282 283 284 288 292 293 293 293 292 292 290 289 290 290 290 288 287 286 285 283 283 283 283
248 245 245 247 247 248 249 250 252 256 261 266 268 270 272 271 271 275 274 274 277 280 282 284 287 288 289 290 289 290 290 289 287 286 285 287 287 287 286 284 284 285 284 283
251 248 247 248 249 249 252 253 256 257 259 262 265 269 271 270 270 273 273 275 276 276 280 285 287 286 287 289 288 289 287 288 288 289 288 287 287 286 285 285 286 286 285 282
251 250 249 250 252 255 254 253 254 257 258 262 265 267 270 271 271 272 274 274 275 276 278 281 285 287 287 289 288 288 288 288 288 287 287 287 288 285 284 284 285 286 285 283
250 252 252 254 256 258 258 256 257 260 262 262 264 267 268 270 270 273 274 273 275 278 279 280 282 284 286 287 287 287 288 289 289 288 287 286 287 284 283 283 283 285 286 285
248 251 253 255 257 259 259 258 260 262 266 265 267 268 269 272 274 275 275 273 274 277 279 281 284 285 286 286 287 286 287 289 289 290 287 285 286 286 282 281 281 282 283 284
249 252 253 255 257 259 262 260 260 266 267 269 270 269 271 273 275 277 277 277 277 278 280 283 285 287 286 285 285 286 287 288 289 288 289 289 287 287 284 282 283 283 281 282
250 253 255 257 259 262 263 263 264 266 267 270 272 273 273 275 276 279 279 279 278 281 282 283 284 284 284 283 284 286 286 286 288 289 290 289 287 287 285 285 284 282 282 280
251 254 255 257 260 262 264 264 266 266 268 269 271 274 276 279 280 280 280 280 279 280 282 283 282 282 282 283 283 285 285 285 286 287 289 289 287 286 284 284 283 283 283 282
251 254 255 259 262 263 266 265 264 266 269 273 275 275 280 280 283 281 282 282 281 281 282 282 281 280 282 282 282 282 282 283 284 284 286 287 288 288 287 285 286 286 285 284
249 251 255 260 263 265 267 267 265 267 269 273 276 278 280 282 283 285 286 283 281 281 281 281 280 280 281 281 281 281 281 283 283 283 285 286 287 287 285 285 285 287 288 288
Height
5920 5922 5922 5923 5924 5924 5924 5924 5924 5924 5924 5923 5923 5922 5921 5920 5919 5918 5917 5915 5913 5912 5910 5907 5905 5903 5901 5899 5897 5895 5893 5891 5889 5888 5888 5887 5886 5886 5885 5885 5884 5884 5884 5884
5919 5920 5921 5921 5922 5922 5923 5923 5923 5924 5923 5922 5921 5921 5920 5919 5918 5918 5917 5916 5914 5912 5910 5908 5906 5903 5901 5899 5897 5895 5893 5891 5890 5889 5888 5888 5887 5886 5886 5885 5885 5885 5884 5884
5917 5919 5919 5920 5920 5920 5921 5922 5922 5923 5922 5921 5921 5921 5920 5918 5917 5917 5916 5915 5913 5912 5910 5908 5906 5904 5901 5899 5897 5895 5893 5891 5890 5890 5889 5888 5887 5887 5886 5886 5886 5885 5885 5884
5915 5916 5917 5918 5919 5919 5920 5921 5921 5921 5921 5920 5920 5918 5918 5916 5915 5915 5915 5914 5913 5911 5910 5908 5906 5903 5901 5898 5896 5894 5893 5891 5890 5889 5889 5888 5888 5887 5887 5886 5886 5885 5885 5884
5913 5914 5915 5916 5917 5917 5918 5918 5919 5919 5919 5918 5917 5916 5917 5914 5913 5913 5913 5912 5911 5910 5909 5907 5904 5902 5900 5898 5896 5894 5892 5891 5889 5888 5888 5888 5887 5887 5886 5886 5885 5885 5884 5884
5911 5912 5913 5914 5915 5915 5916 5916 5916 5916 5916 5916 5915 5915 5915 5913 5912 5912 5911 5910 5910 5909 5907 5905 5903 5901 5899 5897 5895 5893 5891 5890 5889 5888 5887 5887 5886 5886 5885 5885 5884 5884 5883 5883
5909 5910 5911 5911 5912 5913 5914 5914 5914 5914 5913 5913 5913 5912 5913 5911 5910 5910 5909 5909 5908 5907 5905 5904 5902 5900 5898 5895 5893 5891 5890 5888 5888 5887 5886 5886 5885 5884 5884 5883 5883 5882 5882 5881
5906 5908 5909 5909 5910 5911 5911 5912 5912 5912 5911 5911 5911 5910 5911 5909 5908 5908 5907 5906 5906 5905 5904 5902 5901 5898 5896 5894 5892 5890 5888 5887 5886 5886 5885 5885 5884 5883 5882 5882 5881 5881 5880 5879
5902 5905 5906 5907 5907 5908 5908 5909 5909 5908 5908 5907 5907 5907 5907 5906 5905 5905 5904 5904 5903 5903 5902 5900 5899 5897 5895 5893 5891 5889 5887 5886 5885 5884 5884 5883 5882 5881 5880 5880 5879 5878 5878 5877
5898 5901 5902 5904 5904 5905 5906 5906 5906 5905 5904 5903 5903 5904 5903 5902 5902 5902 5901 5900 5900 5899 5898 5897 5896 5894 5893 5891 5889 5887 5886 5884 5883 5883 5882 5881 5880 5880 5878 5877 5877 5876 5875 5874
5894 5896 5899 5900 5901 5901 5902 5902 5902 5901 5901 5900 5900 5902 5900 5899 5898 5898 5898 5897 5896 5895 5894 5893 5893 5892 5890 5889 5887 5885 5883 5882 5881 5880 5880 5879 5878 5877 5876 5875 5874 5873 5872 5871
5889 5892 5894 5896 5897 5897 5897 5897 5898 5898 5897 5896 5896 5899 5896 5896 5895 5894 5894 5893 5892 5891 5891 5890 5889 5888 5887 5886 5884 5883 5881 5878 5877 5876 5876 5875 5874 5873 5872 5871 5870 5869 5868 5868
5885 5887 5889 5891 5894 5894 5893 5893 5893 5893 5893 5892 5892 5895 5892 5891 5891 5890 5890 5890 5888 5887 5887 5886 5885 5884 5883 5882 5881 5879 5878 5876 5874 5873 5872 5871 5870 5869 5869 5867 5866 5865 5865 5863
5881 5882 5884 5886 5887 5888 5888 5889 5889 5889 5888 5888 5888 5888 5888 5887 5886 5885 5885 5885 5884 5883 5883 5882 5881 5880 5879 5878 5876 5875 5873 5872 5870 5869 5868 5867 5866 5865 5864 5863 5861 5861 5860 5859
5875 5877 5878 5880 5881 5882 5883 5884 5884 5883 5883 5883 5883 5883 5883 5882 5882 5881 5880 5880 5879 5879 5878 5877 5876 5874 5873 5872 5871 5870 5869 5867 5866 5864 5863 5862 5861 5859 5858 5857 5856 5855 5854 5853
5870 5871 5873 5875 5876 5876 5877 5878 5878 5878 5877 5877 5878 5878 5878 5877 5876 5875 5874 5874 5874 5874 5873 5872 5870 5869 5868 5866 5865 5864 5863 5862 5861 5859 5858 5856 5855 5854 5853 5852 5851 5849 5848 5847
5864 5866 5867 5869 5870 5870 5872 5872 5872 5872 5872 5872 5872 5872 5872 5871 5871 5870 5869 5868 5868 5868 5868 5867 5865 5864 5863 5862 5860 5858 5857 5856 5855 5853 5852 5851 5849 5848 5847 5846 5845 5843 5842 5841
5859 5860 5861 5862 5864 5864 5868 5866 5866 5866 5866 5866 5866 5866 5866 5866 5865 5864 5863 5862 5862 5862 5862 5861 5860 5859 5857 5856 5855 5853 5851 5850 5849 5847 5846 5845 5843 5842 5841 5839 5838 5837 5836 5834
5853 5854 5855 5856 5856 5857 5860 5859 5859 5859 5860 5860 5860 5860 5859 5859 5858 5858 5858 5856 5855 5855 5855 5854 5854 5853 5852 5850 5848 5847 5845 5843 5842 5841 5839 5838 5836 5835 5834 5832 5831 5830 5828 5827
5846 5847 5849 5849 5850 5851 5853 5853 5852 5853 5853 5854 5853 5853 5853 5853 5852 5852 5851 5850 5849 5848 5849 5848 5847 5846 5845 5843 5841 5840 5838 5837 5835 5833 5831 5830 5829 5827 5826 5825 5823 5822 5820 5819
5840 5841 5842 5843 5843 5844 5846 5846 5847 5847 5848 5847 5846 5846 5846 5845 5845 5845 5843 5842 5842 5841 5841 5840 5839 5838 5837 5836 5834 5833 5831 5829 5827 5825 5823 5822 5821 5819 5818 5817 5815 5814 5812 5811
5833 5834 5835 5836 5837 5839 5839 5840 5841 5840 5840 5840 5839 5839 5838 5838 5838 5837 5835 5834 5834 5833 5833 5832 5832 5831 5829 5828 5827 5826 5824 5823 5820 5818 5816 5815 5813 5812 5810 5809 5807 5806 5804 5802
5826 5828 5829 5830 5832 5832 5832 5833 5833 5833 5833 5832 5832 5832 5831 5831 5831 5830 5829 5827 5827 5826 5826 5825 5824 5823 5822 5821 5820 5818 5817 5815 5813 5811 5809 5807 5805 5804 5802 5800 5799 5798 5796 5795
5820 5821 5822 5823 5823 5825 5826 5826 5826 5826 5826 5825 5825 5826 5825 5825 5824 5823 5821 5820 5820 5819 5818 5817 5816 5815 5814 5813 5812 5810 5809 5807 5805 5804 5802 5799 5798 5796 5794 5792 5791 5790 5788 5787
5814 5814 5815 5816 5817 5818 5819 5819 5819 5819 5818 5819 5819 5819 5819 5818 5817 5815 5814 5812 5812 5811 5810 5809 5808 5807 5806 5805 5803 5802 5800 5799 5797 5796 5794 5792 5791 5789 5787 5785 5784 5782 5781 5779
5807 5808 5809 5810 5811 5812 5813 5812 5812 5812 5812 5812 5812 5812 5812 5811 5809 5808 5806 5804 5803 5802 5801 5800 5799 5798 5797 5796 5795 5794 5792 5790 5789 5787 5786 5784 5783 5781 5780 5778 5776 5774 5773 5772